Flag for U.S.A. Weather past 2 weeks in Ontario, California, U.S.A.

74 °F

Scattered clouds.

Feels Like: 77 °F
Forecast: 57 / 79 °F
Wind: 12 mph from West

Location: Ontario International Airport

Current Time: Oct 6, 2015 at 1:38:58 PM

Latest Report: Oct 6, 2015 at 12:53 PM

Visibility: 10 mi

Pressure: 30.06 "Hg

Humidity: 53%

Dew point: 56 °F

Location of OntarioLocation

Historic Weather in Ontario — Graph


Ontario temperature yesterday

Maximum temperature yesterday: 73 °F (at 1:53 PM)
Minimum temperature yesterday: 58 °F (at 2:53 AM)
Average temperature yesterday: 64 °F

Past Weeks' High & Low Weather Summary

High101 °F (Sep 24, 2:53 PM)93% (Oct 5, 10:53 PM)30.09 "Hg (Oct 5, 10:53 PM)
Low58 °F (Oct 5, 2:53 AM)15% (Sep 27, 2:53 PM)29.52 "Hg (Oct 3, 5:53 PM)
Average76 °F55%29.80 "Hg
* Reported Sep 21 11:53 AM — Oct 6 11:53 AM, Ontario, Weather by CustomWeather, © 2015

Note: Actual official high and low records may vary slightly from our data, if they occured in-between our weather recording intervals... More about our weather records


Ontario weather history for previous 24 hours

Time TempWeatherWind HumidityBarometerVisibility
11:53 AM
Tue, Oct 6
72 °FScattered clouds.8 mph55%30.07 "Hg10 mi
10:53 AM68 °FScattered clouds.7 mph68%30.09 "Hg10 mi
9:53 AM67 °FPassing clouds.6 mph71%30.09 "Hg9 mi
8:53 AM64 °FPassing clouds.No wind73%30.08 "Hg9 mi
7:53 AM61 °FFog.No wind83%30.06 "Hg7 mi
6:53 AM59 °FFog.3 mph87%30.04 "Hg5 mi
5:53 AM59 °FFog.5 mph90%30.03 "Hg4 mi
4:53 AM61 °FFog.No wind87%30.01 "Hg5 mi
3:53 AM61 °FFog.No wind90%30.00 "Hg6 mi
2:53 AM61 °FPassing clouds.No wind90%30.00 "Hg7 mi
1:53 AM61 °FFog.No wind93%29.99 "Hg4 mi
12:53 AM61 °FFog.No wind93%30.00 "Hg4 mi
11:53 PM
Mon, Oct 5
61 °FFog.No wind93%30.01 "Hg5 mi
10:53 PM61 °FPassing clouds.3 mph93%30.00 "Hg8 mi
9:53 PM63 °FPartly cloudy.5 mph87%29.98 "Hg10 mi
8:53 PM62 °FLight rain. Passing clouds.No wind90%29.97 "Hg10 mi
8:00 PM63 °FLight rain. Overcast.No wind84%29.98 "Hg9 mi
6:53 PM64 °FPartly sunny.3 mph78%29.94 "Hg10 mi
5:53 PM65 °FPartly sunny.3 mph76%29.92 "Hg10 mi
4:53 PM63 °FLight rain. Partly sunny.5 mph78%29.90 "Hg10 mi
3:53 PM68 °FPartly sunny.7 mph59%29.87 "Hg10 mi
2:53 PM70 °FPartly sunny.15 mph55%29.86 "Hg10 mi
1:53 PM73 °FBroken clouds.5 mph41%29.85 "Hg10 mi
Weather by CustomWeather, © 2015

See weather overviewHow to use our weather pages